This is the latest recevied weather packets stored in our database for station/object KC7WRB. If no packets are shown the sender has not sent any weather packets the latest 10 day(s).
| Time | Temp. | Humidity | Pressure | Rain* | Wind** | Luminosity | Snow |
|---|---|---|---|---|---|---|---|
| 1777628120 | 3.89° C | 53% | 1018.7 hPa | 0 mm | - | 0 W/m² | - |
| 1777627815 | 4.44° C | 51% | 1018.7 hPa | 0 mm | - | 0 W/m² | - |
| 1777627514 | 4.44° C | 51% | 1018.9 hPa | 0 mm | - | 0 W/m² | - |
| 1777627209 | 4.44° C | 52% | 1018.6 hPa | 0 mm | - | 0 W/m² | - |
| 1777626906 | 5° C | 52% | 1018.7 hPa | 0 mm | - | 0 W/m² | - |
| 1777626603 | 5.56° C | 51% | 1018.6 hPa | 0 mm | - | 0 W/m² | - |
| 1777626303 | 5° C | 51% | 1018.9 hPa | 0 mm | - | 0 W/m² | - |
| 1777626002 | 3.89° C | 56% | 1018.7 hPa | 0 mm | - | 0 W/m² | - |
| 1777625697 | 3.89° C | 57% | 1018.6 hPa | 0 mm | - | 0 W/m² | - |
| 1777625392 | 3.33° C | 59% | 1018.5 hPa | 0 mm | - | 0 W/m² | - |
| 1777625089 | 3.33° C | 59% | 1018.7 hPa | 0 mm | - | 0 W/m² | - |
| 1777624785 | 3.89° C | 57% | 1018.9 hPa | 0 mm | - | 0 W/m² | - |
| 1777624481 | 5° C | 55% | 1018.9 hPa | 0 mm | - | 0 W/m² | - |
| 1777624179 | 5° C | 54% | 1019 hPa | 0 mm | - | 0 W/m² | - |
| 1777623875 | 5.56° C | 53% | 1019 hPa | 0 mm | - | 0 W/m² | - |
| 1777623571 | 6.67° C | 53% | 1018.9 hPa | 0 mm | - | 0 W/m² | - |
| 1777623270 | 7.22° C | 44% | 1019 hPa | 0 mm | - | 0 W/m² | - |
| 1777622966 | 8.33° C | 41% | 1019 hPa | 0 mm | - | 0 W/m² | - |
| 1777622663 | 8.33° C | 38% | 1019.1 hPa | 0 mm | - | 0 W/m² | - |
| 1777622359 | 7.78° C | 41% | 1018.9 hPa | 0 mm | - | 0 W/m² | - |
| 1777622056 | 7.22° C | 42% | 1018.9 hPa | 0 mm | - | 0 W/m² | - |
| 1777621751 | 7.22° C | 44% | 1019 hPa | 0 mm | - | 0 W/m² | - |
| 1777621448 | 7.22° C | 45% | 1019 hPa | 0 mm | - | 0 W/m² | - |
| 1777621143 | 7.22° C | 45% | 1018.7 hPa | 0 mm | - | 0 W/m² | - |
| 1777620840 | 6.67° C | 47% | 1018.7 hPa | 0 mm | - | 0 W/m² | - |
* Rain latest hour (hover to see other rain measurements)
** Current wind speed in m/s (hover to see current wind gust speed)